Time,TemperatureF,DewpointF,PressureIn,WindDirection,WindDirectionDegrees,WindSpeedMPH,WindSpeedGustMPH,Humidity,HourlyPrecipIn,Conditions,Clouds,dailyrainin,SolarRadiationWatts/m^2,SoftwareType,DateUTC
2013-02-22 00:00:00,22.5,17.0,30.31,ENE,74,2.0,6.0,79,0.00,,,0.00,0,Wunderground v.1.15,2013-02-22 05:00:00,
2013-02-22 00:01:00,22.5,17.0,30.31,East,98,2.0,2.0,79,0.00,,,0.00,0,Wunderground v.1.15,2013-02-22 05:01:00,
2013-02-22 00:07:00,22.5,17.0,30.31,ENE,77,2.0,2.0,79,0.00,,,0.00,0,Wunderground v.1.15,2013-02-22 05:07:00,
2013-02-22 00:08:00,22.6,17.1,30.31,East,95,2.0,5.0,79,0.00,,,0.00,0,Wunderground v.1.15,2013-02-22 05:08:00,
2013-02-22 00:14:00,22.6,17.1,30.31,NE,55,2.0,4.0,79,0.00,,,0.00,0,Wunderground v.1.15,2013-02-22 05:14:00,
2013-02-22 00:20:00,22.7,17.2,30.30,ESE,107,3.0,6.0,79,0.00,,,0.00,0,Wunderground v.1.15,2013-02-22 05:20:00,
2013-02-22 00:25:00,22.8,17.3,30.30,East,91,2.0,3.0,79,0.00,,,0.00,0,Wunderground v.1.15,2013-02-22 05:25:00,
2013-02-22 00:30:00,22.9,17.4,30.31,ESE,115,2.0,5.0,79,0.00,,,0.00,0,Wunderground v.1.15,2013-02-22 05:30:00,
2013-02-22 00:35:00,23.0,17.2,30.30,SE,124,2.0,5.0,78,0.00,,,0.00,0,Wunderground v.1.15,2013-02-22 05:35:00,
2013-02-22 00:40:00,23.1,17.3,30.30,NE,40,3.0,5.0,78,0.00,,,0.00,0,Wunderground v.1.15,2013-02-22 05:40:00,
2013-02-22 00:47:00,23.1,17.3,30.28,East,94,3.0,8.0,78,0.00,,,0.00,0,Wunderground v.1.15,2013-02-22 05:47:00,
2013-02-22 00:52:00,23.2,17.4,30.30,ESE,119,2.0,2.0,78,0.00,,,0.00,0,Wunderground v.1.15,2013-02-22 05:52:00,
2013-02-22 00:57:00,23.3,17.5,30.29,ESE,103,2.0,4.0,78,0.00,,,0.00,0,Wunderground v.1.15,2013-02-22 05:57:00,
2013-02-22 01:03:00,23.3,17.5,30.30,ESE,119,1.0,2.0,78,0.00,,,0.00,0,Wunderground v.1.15,2013-02-22 06:03:00,
2013-02-22 01:09:00,23.3,17.5,30.31,East,100,0.0,2.0,78,0.00,,,0.00,0,Wunderground v.1.15,2013-02-22 06:09:00,
2013-02-22 01:14:00,23.4,17.6,30.29,East,100,0.0,0.0,78,0.00,,,0.00,0,Wunderground v.1.15,2013-02-22 06:14:00,
2013-02-22 01:20:00,23.4,17.6,30.30,East,80,0.0,0.0,78,0.00,,,0.00,0,Wunderground v.1.15,2013-02-22 06:20:00,
2013-02-22 01:27:00,23.5,17.9,30.30,East,80,0.0,0.0,79,0.00,,,0.00,0,Wunderground v.1.15,2013-02-22 06:27:00,
2013-02-22 01:32:00,23.5,17.9,30.31,East,80,0.0,0.0,79,0.00,,,0.00,0,Wunderground v.1.15,2013-02-22 06:32:00,
2013-02-22 01:37:00,23.5,17.9,30.32,East,80,0.0,0.0,79,0.00,,,0.00,0,Wunderground v.1.15,2013-02-22 06:37:00,
2013-02-22 01:43:00,23.5,17.9,30.31,East,80,0.0,0.0,79,0.00,,,0.00,0,Wunderground v.1.15,2013-02-22 06:43:00,
2013-02-22 01:48:00,23.6,18.0,30.30,East,80,0.0,0.0,79,0.00,,,0.00,0,Wunderground v.1.15,2013-02-22 06:48:00,
2013-02-22 01:55:00,23.6,18.0,30.30,East,85,0.0,0.0,79,0.00,,,0.00,0,Wunderground v.1.15,2013-02-22 06:55:00,
2013-02-22 02:01:00,23.7,18.1,30.30,East,85,0.0,0.0,79,0.00,,,0.00,0,Wunderground v.1.15,2013-02-22 07:01:00,
2013-02-22 02:07:00,23.8,18.2,30.31,East,85,0.0,0.0,79,0.00,,,0.00,0,Wunderground v.1.15,2013-02-22 07:07:00,
2013-02-22 02:12:00,23.8,17.9,30.31,East,85,0.0,0.0,78,0.00,,,0.00,0,Wunderground v.1.15,2013-02-22 07:12:00,
2013-02-22 02:17:00,23.8,17.9,30.31,East,85,0.0,1.0,78,0.00,,,0.00,0,Wunderground v.1.15,2013-02-22 07:17:00,
2013-02-22 02:22:00,23.8,17.9,30.32,East,85,0.0,0.0,78,0.00,,,0.00,0,Wunderground v.1.15,2013-02-22 07:22:00,
2013-02-22 02:28:00,23.9,18.0,30.31,East,85,0.0,0.0,78,0.00,,,0.00,0,Wunderground v.1.15,2013-02-22 07:28:00,
2013-02-22 02:33:00,23.9,18.0,30.31,East,85,0.0,0.0,78,0.00,,,0.00,0,Wunderground v.1.15,2013-02-22 07:33:00,
2013-02-22 02:39:00,23.9,18.0,30.31,East,85,0.0,0.0,78,0.00,,,0.00,0,Wunderground v.1.15,2013-02-22 07:39:00,
2013-02-22 02:44:00,23.9,18.0,30.30,East,85,0.0,1.0,78,0.00,,,0.00,0,Wunderground v.1.15,2013-02-22 07:44:00,
2013-02-22 02:50:00,23.8,18.2,30.27,ESE,104,0.0,1.0,79,0.00,,,0.00,0,Wunderground v.1.15,2013-02-22 07:50:00,
2013-02-22 02:55:00,23.8,18.2,30.27,ESE,106,0.0,1.0,79,0.00,,,0.00,0,Wunderground v.1.15,2013-02-22 07:55:00,
2013-02-22 03:01:00,23.8,18.2,30.28,ESE,106,0.0,0.0,79,0.00,,,0.00,0,Wunderground v.1.15,2013-02-22 08:01:00,
2013-02-22 03:06:00,23.8,18.2,30.28,ESE,106,0.0,0.0,79,0.00,,,0.00,0,Wunderground v.1.15,2013-02-22 08:06:00,
2013-02-22 03:12:00,23.8,18.2,30.29,SE,133,0.0,0.0,79,0.00,,,0.00,0,Wunderground v.1.15,2013-02-22 08:12:00,
2013-02-22 03:18:00,23.8,18.5,30.27,SE,133,0.0,0.0,80,0.00,,,0.00,0,Wunderground v.1.15,2013-02-22 08:18:00,
2013-02-22 03:23:00,23.9,18.3,30.26,SE,131,0.0,2.0,79,0.00,,,0.00,0,Wunderground v.1.15,2013-02-22 08:23:00,
2013-02-22 03:29:00,24.0,18.4,30.26,ESE,103,0.0,4.0,79,0.00,,,0.00,0,Wunderground v.1.15,2013-02-22 08:29:00,
2013-02-22 03:35:00,24.1,18.5,30.25,ESE,110,1.0,4.0,79,0.00,,,0.00,0,Wunderground v.1.15,2013-02-22 08:35:00,
2013-02-22 03:40:00,24.2,18.6,30.26,East,92,1.0,4.0,79,0.00,,,0.00,0,Wunderground v.1.15,2013-02-22 08:40:00,
2013-02-22 03:45:00,24.3,18.7,30.25,East,95,1.0,4.0,79,0.00,,,0.00,0,Wunderground v.1.15,2013-02-22 08:45:00,
2013-02-22 03:52:00,24.4,18.8,30.24,East,93,2.0,2.0,79,0.00,,,0.00,0,Wunderground v.1.15,2013-02-22 08:52:00,
2013-02-22 03:57:00,24.5,18.6,30.24,East,86,2.0,6.0,78,0.00,,,0.00,0,Wunderground v.1.15,2013-02-22 08:57:00,
2013-02-22 04:03:00,24.5,18.9,30.24,ESE,106,2.0,2.0,79,0.00,,,0.00,0,Wunderground v.1.15,2013-02-22 09:03:00,
2013-02-22 04:10:00,24.6,19.0,30.24,ENE,78,1.0,3.0,79,0.00,,,0.00,0,Wunderground v.1.15,2013-02-22 09:10:00,
2013-02-22 04:15:00,24.7,18.8,30.24,ENE,69,1.0,4.0,78,0.00,,,0.00,0,Wunderground v.1.15,2013-02-22 09:15:00,
2013-02-22 04:20:00,24.8,18.9,30.23,East,96,2.0,2.0,78,0.00,,,0.00,0,Wunderground v.1.15,2013-02-22 09:20:00,
2013-02-22 04:26:00,24.9,19.0,30.22,ESE,111,2.0,4.0,78,0.00,,,0.00,0,Wunderground v.1.15,2013-02-22 09:26:00,
2013-02-22 04:31:00,25.0,19.1,30.22,East,101,2.0,2.0,78,0.00,,,0.00,0,Wunderground v.1.15,2013-02-22 09:31:00,
2013-02-22 04:36:00,25.0,18.8,30.22,ESE,113,2.0,5.0,77,0.00,,,0.00,0,Wunderground v.1.15,2013-02-22 09:36:00,
2013-02-22 04:41:00,25.1,18.9,30.22,ENE,70,2.0,2.0,77,0.00,,,0.00,0,Wunderground v.1.15,2013-02-22 09:41:00,
2013-02-22 04:47:00,25.1,18.9,30.22,East,79,1.0,2.0,77,0.00,,,0.00,0,Wunderground v.1.15,2013-02-22 09:47:00,
2013-02-22 04:52:00,25.1,18.9,30.22,ENE,77,1.0,1.0,77,0.00,,,0.00,0,Wunderground v.1.15,2013-02-22 09:52:00,
2013-02-22 04:58:00,25.2,19.3,30.23,East,96,0.0,1.0,78,0.00,,,0.00,0,Wunderground v.1.15,2013-02-22 09:58:00,
2013-02-22 05:04:00,25.3,19.4,30.23,East,99,1.0,4.0,78,0.00,,,0.00,0,Wunderground v.1.15,2013-02-22 10:04:00,
2013-02-22 05:09:00,25.5,19.6,30.23,ENE,76,1.0,4.0,78,0.00,,,0.00,0,Wunderground v.1.15,2013-02-22 10:09:00,
2013-02-22 05:15:00,25.7,19.5,30.23,ENE,57,1.0,3.0,77,0.00,,,0.00,0,Wunderground v.1.15,2013-02-22 10:15:00,
2013-02-22 05:20:00,25.9,19.7,30.23,East,98,1.0,3.0,77,0.00,,,0.00,0,Wunderground v.1.15,2013-02-22 10:20:00,
2013-02-22 05:26:00,26.0,19.8,30.23,ENE,78,0.0,3.0,77,0.00,,,0.00,0,Wunderground v.1.15,2013-02-22 10:26:00,
2013-02-22 05:31:00,26.2,20.0,30.23,ENE,68,0.0,0.0,77,0.00,,,0.00,0,Wunderground v.1.15,2013-02-22 10:31:00,
2013-02-22 05:37:00,26.4,20.2,30.24,East,101,0.0,0.0,77,0.00,,,0.00,0,Wunderground v.1.15,2013-02-22 10:37:00,
2013-02-22 05:43:00,26.6,20.1,30.23,East,99,2.0,3.0,76,0.00,,,0.00,0,Wunderground v.1.15,2013-02-22 10:43:00,
2013-02-22 05:49:00,26.8,20.2,30.22,ESE,107,2.0,6.0,76,0.00,,,0.00,0,Wunderground v.1.15,2013-02-22 10:49:00,
2013-02-22 05:54:00,27.0,20.4,30.22,ESE,103,2.0,4.0,76,0.00,,,0.00,0,Wunderground v.1.15,2013-02-22 10:54:00,
2013-02-22 06:00:00,27.2,20.3,30.21,East,100,2.0,2.0,75,0.00,,,0.00,0,Wunderground v.1.15,2013-02-22 11:00:00,
2013-02-22 06:05:00,27.4,20.5,30.21,ENE,76,1.0,2.0,75,0.00,,,0.00,0,Wunderground v.1.15,2013-02-22 11:05:00,
2013-02-22 06:11:00,27.5,20.6,30.20,East,97,2.0,2.0,75,0.00,,,0.00,0,Wunderground v.1.15,2013-02-22 11:11:00,
2013-02-22 06:17:00,27.8,20.9,30.20,East,89,3.0,5.0,75,0.00,,,0.00,0,Wunderground v.1.15,2013-02-22 11:17:00,
2013-02-22 06:22:00,27.9,20.7,30.19,ESE,110,3.0,5.0,74,0.00,,,0.00,0,Wunderground v.1.15,2013-02-22 11:22:00,
2013-02-22 06:29:00,28.2,21.0,30.17,ESE,119,3.0,5.0,74,0.00,,,0.00,0,Wunderground v.1.15,2013-02-22 11:29:00,
2013-02-22 06:34:00,28.5,20.9,30.17,ENE,72,3.0,5.0,73,0.00,,,0.00,0,Wunderground v.1.15,2013-02-22 11:34:00,
2013-02-22 06:39:00,28.7,21.1,30.17,East,87,2.0,5.0,73,0.00,,,0.00,0,Wunderground v.1.15,2013-02-22 11:39:00,
2013-02-22 06:45:00,28.8,21.2,30.16,ESE,113,2.0,3.0,73,0.00,,,0.00,0,Wunderground v.1.15,2013-02-22 11:45:00,
2013-02-22 06:50:00,29.0,21.1,30.17,ENE,66,1.0,2.0,72,0.00,,,0.00,0,Wunderground v.1.15,2013-02-22 11:50:00,
2013-02-22 06:55:00,29.3,21.1,30.16,ESE,109,1.0,3.0,71,0.00,,,0.00,0,Wunderground v.1.15,2013-02-22 11:55:00,
2013-02-22 07:01:00,29.7,21.4,30.16,ENE,59,1.0,5.0,71,0.00,,,0.00,0,Wunderground v.1.15,2013-02-22 12:01:00,
2013-02-22 07:06:00,30.1,21.2,30.16,ESE,112,2.0,5.0,69,0.00,,,0.00,0,Wunderground v.1.15,2013-02-22 12:06:00,
2013-02-22 07:11:00,30.5,21.2,30.15,SE,144,3.0,7.0,68,0.00,,,0.00,0,Wunderground v.1.15,2013-02-22 12:11:00,
2013-02-22 07:16:00,31.1,21.1,30.15,ESE,102,4.0,7.0,66,0.00,,,0.00,0,Wunderground v.1.15,2013-02-22 12:16:00,
2013-02-22 07:22:00,31.6,21.5,30.15,SE,130,4.0,5.0,66,0.00,,,0.00,7,Wunderground v.1.15,2013-02-22 12:22:00,
2013-02-22 07:28:00,31.9,21.1,30.14,East,86,2.0,5.0,64,0.00,,,0.00,9,Wunderground v.1.15,2013-02-22 12:28:00,
2013-02-22 07:33:00,32.2,21.4,30.14,ESE,115,2.0,5.0,64,0.00,,,0.00,11,Wunderground v.1.15,2013-02-22 12:33:00,
2013-02-22 07:39:00,32.5,21.3,30.13,SE,131,3.0,7.0,63,0.00,,,0.00,12,Wunderground v.1.15,2013-02-22 12:39:00,
2013-02-22 07:44:00,32.7,21.5,30.13,ESE,112,4.0,8.0,63,0.00,,,0.00,14,Wunderground v.1.15,2013-02-22 12:44:00,
2013-02-22 07:51:00,33.0,21.8,30.13,SE,136,4.0,4.0,63,0.00,,,0.00,23,Wunderground v.1.15,2013-02-22 12:51:00,
2013-02-22 07:56:00,33.2,21.6,30.13,SE,126,4.0,7.0,62,0.00,,,0.00,26,Wunderground v.1.15,2013-02-22 12:56:00,
2013-02-22 08:02:00,33.4,21.8,30.13,ESE,115,5.0,5.0,62,0.00,,,0.00,19,Wunderground v.1.15,2013-02-22 13:02:00,
2013-02-22 08:07:00,33.7,22.4,30.13,SE,128,6.0,7.0,63,0.00,,,0.00,25,Wunderground v.1.15,2013-02-22 13:07:00,
2013-02-22 08:12:00,33.8,22.1,30.13,ESE,112,5.0,7.0,62,0.00,,,0.00,26,Wunderground v.1.15,2013-02-22 13:12:00,
2013-02-22 08:18:00,33.9,22.6,30.13,SE,138,3.0,7.0,63,0.00,,,0.00,26,Wunderground v.1.15,2013-02-22 13:18:00,
2013-02-22 08:23:00,34.1,23.2,30.13,SE,126,2.0,3.0,64,0.00,,,0.00,30,Wunderground v.1.15,2013-02-22 13:23:00,
2013-02-22 08:28:00,34.2,23.3,30.13,SE,140,4.0,6.0,64,0.00,,,0.00,26,Wunderground v.1.15,2013-02-22 13:28:00,
2013-02-22 08:34:00,34.4,23.5,30.13,SSE,161,6.0,9.0,64,0.00,,,0.00,28,Wunderground v.1.15,2013-02-22 13:34:00,
2013-02-22 08:40:00,34.6,23.7,30.14,South,173,7.0,10.0,64,0.00,,,0.00,39,Wunderground v.1.15,2013-02-22 13:40:00,
2013-02-22 08:45:00,34.6,23.7,30.13,SE,136,7.0,8.0,64,0.00,,,0.00,65,Wunderground v.1.15,2013-02-22 13:45:00,
2013-02-22 08:50:00,34.7,23.8,30.12,SE,137,6.0,6.0,64,0.00,,,0.00,72,Wunderground v.1.15,2013-02-22 13:50:00,
2013-02-22 08:56:00,34.8,23.9,30.12,ESE,103,5.0,9.0,64,0.00,,,0.00,56,Wunderground v.1.15,2013-02-22 13:56:00,
2013-02-22 09:02:00,34.9,23.9,30.11,SE,143,5.0,7.0,64,0.00,,,0.00,84,Wunderground v.1.15,2013-02-22 14:02:00,
2013-02-22 09:07:00,34.9,24.3,30.12,East,98,5.0,8.0,65,0.00,,,0.00,70,Wunderground v.1.15,2013-02-22 14:07:00,
2013-02-22 09:12:00,35.0,24.8,30.11,ESE,117,5.0,8.0,66,0.00,,,0.00,69,Wunderground v.1.15,2013-02-22 14:12:00,
2013-02-22 09:17:00,35.0,24.8,30.11,ESE,118,5.0,8.0,66,0.00,,,0.00,60,Wunderground v.1.15,2013-02-22 14:17:00,
2013-02-22 09:22:00,35.0,25.1,30.11,ESE,113,6.0,12.0,67,0.00,,,0.00,67,Wunderground v.1.15,2013-02-22 14:22:00,
2013-02-22 09:28:00,35.0,25.1,30.11,ESE,120,6.0,12.0,67,0.00,,,0.00,62,Wunderground v.1.15,2013-02-22 14:28:00,
2013-02-22 09:35:00,35.0,25.1,30.11,SSE,152,5.0,9.0,67,0.00,,,0.00,60,Wunderground v.1.15,2013-02-22 14:35:00,
2013-02-22 09:40:00,34.8,25.3,30.11,SE,140,5.0,9.0,68,0.00,,,0.00,33,Wunderground v.1.15,2013-02-22 14:40:00,
2013-02-22 09:46:00,34.6,25.1,30.11,SE,145,6.0,9.0,68,0.00,,,0.00,54,Wunderground v.1.15,2013-02-22 14:46:00,
2013-02-22 09:52:00,34.6,25.5,30.11,ESE,114,6.0,7.0,69,0.00,,,0.00,74,Wunderground v.1.15,2013-02-22 14:52:00,
2013-02-22 09:58:00,34.5,25.7,30.10,SE,143,6.0,13.0,70,0.00,,,0.00,32,Wunderground v.1.15,2013-02-22 14:58:00,
2013-02-22 10:03:00,34.2,26.4,30.10,ESE,103,6.0,7.0,73,0.00,,,0.00,33,Wunderground v.1.15,2013-02-22 15:03:00,
2013-02-22 10:09:00,33.8,26.7,30.10,East,97,5.0,9.0,75,0.00,,,0.00,44,Wunderground v.1.15,2013-02-22 15:09:00,
2013-02-22 10:15:00,33.5,27.4,30.11,ESE,112,5.0,8.0,78,0.00,,,0.00,44,Wunderground v.1.15,2013-02-22 15:15:00,
2013-02-22 10:20:00,33.3,27.8,30.11,SE,135,4.0,8.0,80,0.00,,,0.00,37,Wunderground v.1.15,2013-02-22 15:20:00,
2013-02-22 10:26:00,33.1,27.6,30.11,ESE,122,4.0,5.0,80,0.00,,,0.00,39,Wunderground v.1.15,2013-02-22 15:26:00,
2013-02-22 10:31:00,33.0,27.8,30.11,ESE,115,3.0,5.0,81,0.00,,,0.00,42,Wunderground v.1.15,2013-02-22 15:31:00,
2013-02-22 10:37:00,32.9,28.0,30.11,SE,132,3.0,5.0,82,0.00,,,0.00,53,Wunderground v.1.15,2013-02-22 15:37:00,
2013-02-22 10:43:00,32.8,28.2,30.11,ESE,120,4.0,6.0,83,0.00,,,0.00,72,Wunderground v.1.15,2013-02-22 15:43:00,
2013-02-22 10:48:00,32.8,28.5,30.10,SSE,156,4.0,9.0,84,0.00,,,0.00,72,Wunderground v.1.15,2013-02-22 15:48:00,
2013-02-22 10:54:00,32.8,28.8,30.10,ESE,110,3.0,4.0,85,0.00,,,0.00,56,Wunderground v.1.15,2013-02-22 15:54:00,
2013-02-22 11:00:00,32.8,28.8,30.10,SE,134,3.0,6.0,85,0.00,,,0.00,35,Wunderground v.1.15,2013-02-22 16:00:00,
2013-02-22 11:05:00,32.8,29.1,30.10,South,181,4.0,5.0,86,0.00,,,0.00,49,Wunderground v.1.15,2013-02-22 16:05:00,
2013-02-22 11:11:00,32.8,29.1,30.10,ESE,109,3.0,5.0,86,0.00,,,0.00,40,Wunderground v.1.15,2013-02-22 16:11:00,
2013-02-22 11:17:00,32.8,29.4,30.10,SE,125,4.0,10.0,87,0.00,,,0.00,26,Wunderground v.1.15,2013-02-22 16:17:00,
2013-02-22 11:23:00,32.8,29.4,30.10,ESE,103,5.0,7.0,87,0.00,,,0.00,21,Wunderground v.1.15,2013-02-22 16:23:00,
2013-02-22 11:29:00,32.8,29.6,30.10,SSE,148,3.0,7.0,88,0.00,,,0.00,26,Wunderground v.1.15,2013-02-22 16:29:00,
2013-02-22 11:34:00,32.8,29.6,30.10,ESE,121,1.0,3.0,88,0.00,,,0.00,28,Wunderground v.1.15,2013-02-22 16:34:00,
2013-02-22 11:40:00,32.8,29.9,30.10,SE,133,2.0,4.0,89,0.00,,,0.00,28,Wunderground v.1.15,2013-02-22 16:40:00,
2013-02-22 11:45:00,32.8,29.9,30.10,ESE,120,2.0,6.0,89,0.00,,,0.00,33,Wunderground v.1.15,2013-02-22 16:45:00,
2013-02-22 11:50:00,32.7,29.8,30.09,East,94,3.0,3.0,89,0.00,,,0.00,37,Wunderground v.1.15,2013-02-22 16:50:00,
2013-02-22 11:55:00,32.7,30.1,30.09,SE,132,2.0,3.0,90,0.00,,,0.00,33,Wunderground v.1.15,2013-02-22 16:55:00,
2013-02-22 12:01:00,32.7,30.1,30.09,ESE,121,1.0,1.0,90,0.00,,,0.00,44,Wunderground v.1.15,2013-02-22 17:01:00,
2013-02-22 12:06:00,32.7,30.4,30.09,East,88,2.0,4.0,91,0.00,,,0.00,46,Wunderground v.1.15,2013-02-22 17:06:00,
2013-02-22 12:12:00,32.7,30.4,30.09,ESE,105,2.0,2.0,91,0.00,,,0.00,33,Wunderground v.1.15,2013-02-22 17:12:00,
2013-02-22 12:17:00,32.8,30.5,30.09,ESE,121,1.0,2.0,91,0.00,,,0.00,44,Wunderground v.1.15,2013-02-22 17:17:00,
2013-02-22 12:22:00,32.8,30.5,30.08,SE,134,1.0,4.0,91,0.00,,,0.00,56,Wunderground v.1.15,2013-02-22 17:22:00,
2013-02-22 12:29:00,32.9,30.8,30.08,ESE,116,2.0,4.0,92,0.00,,,0.00,51,Wunderground v.1.15,2013-02-22 17:29:00,
2013-02-22 12:34:00,33.0,30.9,30.08,ESE,104,1.0,5.0,92,0.00,,,0.00,60,Wunderground v.1.15,2013-02-22 17:34:00,
2013-02-22 12:40:00,33.1,31.0,30.08,South,185,2.0,5.0,92,0.00,,,0.00,49,Wunderground v.1.15,2013-02-22 17:40:00,
2013-02-22 12:45:00,33.2,31.1,30.08,East,80,1.0,4.0,92,0.00,,,0.00,44,Wunderground v.1.15,2013-02-22 17:45:00,
2013-02-22 12:50:00,33.3,31.2,30.07,NE,43,1.0,5.0,92,0.00,,,0.01,47,Wunderground v.1.15,2013-02-22 17:50:00,
2013-02-22 12:57:00,33.4,31.3,30.08,ESE,123,2.0,2.0,92,0.00,,,0.01,39,Wunderground v.1.15,2013-02-22 17:57:00,
2013-02-22 13:02:00,33.5,31.4,30.08,East,79,1.0,1.0,92,0.00,,,0.01,46,Wunderground v.1.15,2013-02-22 18:02:00,
2013-02-22 13:07:00,33.6,31.5,30.07,ESE,120,1.0,3.0,92,0.00,,,0.01,53,Wunderground v.1.15,2013-02-22 18:07:00,
2013-02-22 13:13:00,33.8,32.0,30.07,SE,131,1.0,1.0,93,0.00,,,0.01,54,Wunderground v.1.15,2013-02-22 18:13:00,
2013-02-22 13:18:00,33.9,32.1,30.07,ESE,121,1.0,2.0,93,0.00,,,0.01,49,Wunderground v.1.15,2013-02-22 18:18:00,
2013-02-22 13:25:00,34.0,32.2,30.07,ESE,114,2.0,2.0,93,0.00,,,0.01,69,Wunderground v.1.15,2013-02-22 18:25:00,
2013-02-22 13:30:00,34.1,32.3,30.07,ESE,123,2.0,4.0,93,0.00,,,0.01,84,Wunderground v.1.15,2013-02-22 18:30:00,
2013-02-22 13:36:00,34.3,32.5,30.06,ESE,109,2.0,5.0,93,0.00,,,0.01,125,Wunderground v.1.15,2013-02-22 18:36:00,
2013-02-22 13:42:00,34.6,32.8,30.06,ESE,119,1.0,1.0,93,0.00,,,0.01,88,Wunderground v.1.15,2013-02-22 18:42:00,
2013-02-22 13:48:00,34.8,33.0,30.06,ESE,109,2.0,3.0,93,0.00,,,0.01,69,Wunderground v.1.15,2013-02-22 18:48:00,
2013-02-22 13:54:00,35.0,32.9,30.06,ESE,113,1.0,2.0,92,0.00,,,0.01,54,Wunderground v.1.15,2013-02-22 18:54:00,
2013-02-22 14:00:00,35.1,33.0,30.05,ESE,103,1.0,4.0,92,0.00,,,0.01,51,Wunderground v.1.15,2013-02-22 19:00:00,
2013-02-22 14:05:00,35.2,33.1,30.05,ESE,104,1.0,5.0,92,0.00,,,0.01,76,Wunderground v.1.15,2013-02-22 19:05:00,
2013-02-22 14:10:00,35.4,33.3,30.05,ESE,117,1.0,5.0,92,0.00,,,0.01,111,Wunderground v.1.15,2013-02-22 19:10:00,
2013-02-22 14:16:00,35.6,33.5,30.05,East,94,2.0,2.0,92,0.00,,,0.01,146,Wunderground v.1.15,2013-02-22 19:16:00,
2013-02-22 14:21:00,35.9,33.8,30.04,SE,135,3.0,5.0,92,0.00,,,0.01,127,Wunderground v.1.15,2013-02-22 19:21:00,
2013-02-22 14:27:00,36.1,33.7,30.04,SE,146,3.0,5.0,91,0.00,,,0.01,127,Wunderground v.1.15,2013-02-22 19:27:00,
2013-02-22 14:32:00,36.4,34.0,30.05,ESE,102,1.0,1.0,91,0.00,,,0.01,65,Wunderground v.1.15,2013-02-22 19:32:00,
2013-02-22 14:37:00,36.6,34.2,30.05,ESE,123,1.0,2.0,91,0.00,,,0.01,54,Wunderground v.1.15,2013-02-22 19:37:00,
2013-02-22 14:43:00,36.7,34.0,30.04,ESE,120,1.0,2.0,90,0.00,,,0.01,70,Wunderground v.1.15,2013-02-22 19:43:00,
2013-02-22 14:48:00,36.8,34.1,30.04,SE,127,1.0,2.0,90,0.00,,,0.01,53,Wunderground v.1.15,2013-02-22 19:48:00,
2013-02-22 14:54:00,36.9,34.2,30.04,ESE,110,1.0,2.0,90,0.00,,,0.01,65,Wunderground v.1.15,2013-02-22 19:54:00,
2013-02-22 14:59:00,37.1,34.4,30.04,East,92,2.0,4.0,90,0.00,,,0.01,102,Wunderground v.1.15,2013-02-22 19:59:00,
2013-02-22 15:06:00,37.4,34.7,30.04,ESE,110,2.0,4.0,90,0.00,,,0.01,83,Wunderground v.1.15,2013-02-22 20:06:00,
2013-02-22 15:11:00,37.6,34.9,30.04,SSE,155,2.0,2.0,90,0.00,,,0.01,93,Wunderground v.1.15,2013-02-22 20:11:00,
2013-02-22 15:17:00,37.8,34.8,30.04,SSE,148,2.0,5.0,89,0.00,,,0.02,74,Wunderground v.1.15,2013-02-22 20:17:00,
2013-02-22 15:22:00,38.0,35.0,30.04,SSE,147,2.0,6.0,89,0.00,,,0.02,63,Wunderground v.1.15,2013-02-22 20:22:00,
2013-02-22 15:29:00,38.2,35.0,30.03,SE,137,2.0,6.0,88,0.00,,,0.02,65,Wunderground v.1.15,2013-02-22 20:29:00,
2013-02-22 15:34:00,38.4,35.2,30.04,SSE,158,1.0,4.0,88,0.00,,,0.02,35,Wunderground v.1.15,2013-02-22 20:34:00,
2013-02-22 15:40:00,38.6,35.4,30.04,ESE,119,1.0,5.0,88,0.00,,,0.02,30,Wunderground v.1.15,2013-02-22 20:40:00,
2013-02-22 15:45:00,38.7,35.5,30.04,SE,128,2.0,4.0,88,0.00,,,0.02,39,Wunderground v.1.15,2013-02-22 20:45:00,
2013-02-22 15:51:00,38.8,35.6,30.04,ESE,103,1.0,1.0,88,0.00,,,0.02,58,Wunderground v.1.15,2013-02-22 20:51:00,
2013-02-22 15:56:00,38.9,35.4,30.03,ESE,107,1.0,4.0,87,0.00,,,0.02,88,Wunderground v.1.15,2013-02-22 20:56:00,
2013-02-22 16:02:00,39.1,35.6,30.03,East,96,1.0,6.0,87,0.00,,,0.02,51,Wunderground v.1.15,2013-02-22 21:02:00,
2013-02-22 16:08:00,39.2,35.7,30.03,SE,126,2.0,6.0,87,0.00,,,0.02,35,Wunderground v.1.15,2013-02-22 21:08:00,
2013-02-22 16:13:00,39.2,35.4,30.04,SE,130,2.0,2.0,86,0.00,,,0.02,26,Wunderground v.1.15,2013-02-22 21:13:00,
2013-02-22 16:20:00,39.2,35.4,30.03,ESE,109,1.0,3.0,86,0.00,,,0.02,37,Wunderground v.1.15,2013-02-22 21:20:00,
2013-02-22 16:25:00,39.3,35.5,30.03,ESE,109,1.0,5.0,86,0.00,,,0.02,21,Wunderground v.1.15,2013-02-22 21:25:00,
2013-02-22 16:30:00,39.3,35.5,30.02,SSE,147,1.0,4.0,86,0.00,,,0.02,30,Wunderground v.1.15,2013-02-22 21:30:00,
2013-02-22 16:36:00,39.3,35.5,30.02,ESE,108,1.0,4.0,86,0.00,,,0.02,30,Wunderground v.1.15,2013-02-22 21:36:00,
2013-02-22 16:41:00,39.4,35.6,30.02,ESE,114,1.0,1.0,86,0.00,,,0.02,18,Wunderground v.1.15,2013-02-22 21:41:00,
2013-02-22 16:46:00,39.4,35.6,30.02,ESE,115,1.0,2.0,86,0.00,,,0.02,21,Wunderground v.1.15,2013-02-22 21:46:00,
2013-02-22 16:51:00,39.4,35.6,30.02,East,99,1.0,1.0,86,0.00,,,0.02,19,Wunderground v.1.15,2013-02-22 21:51:00,
2013-02-22 16:57:00,39.4,35.6,30.02,East,91,1.0,2.0,86,0.00,,,0.02,19,Wunderground v.1.15,2013-02-22 21:57:00,
2013-02-22 17:04:00,39.5,35.7,30.01,East,91,0.0,0.0,86,0.00,,,0.02,18,Wunderground v.1.15,2013-02-22 22:04:00,
2013-02-22 17:09:00,39.5,35.7,30.02,SE,134,1.0,6.0,86,0.00,,,0.02,16,Wunderground v.1.15,2013-02-22 22:09:00,
2013-02-22 17:14:00,39.5,35.4,30.02,ESE,105,1.0,1.0,85,0.00,,,0.02,16,Wunderground v.1.15,2013-02-22 22:14:00,
2013-02-22 17:20:00,39.5,35.4,30.02,ESE,106,0.0,1.0,85,0.00,,,0.02,12,Wunderground v.1.15,2013-02-22 22:20:00,
2013-02-22 17:25:00,39.5,35.4,30.03,East,84,0.0,2.0,85,0.00,,,0.02,9,Wunderground v.1.15,2013-02-22 22:25:00,
2013-02-22 17:30:00,39.5,35.4,30.02,East,96,0.0,2.0,85,0.00,,,0.02,7,Wunderground v.1.15,2013-02-22 22:30:00,
2013-02-22 17:36:00,39.5,35.4,30.02,ESE,113,0.0,1.0,85,0.00,,,0.02,5,Wunderground v.1.15,2013-02-22 22:36:00,
2013-02-22 17:42:00,39.5,35.4,30.02,ESE,113,0.0,0.0,85,0.00,,,0.02,5,Wunderground v.1.15,2013-02-22 22:42:00,
2013-02-22 17:47:00,39.4,35.3,30.03,ESE,103,1.0,4.0,85,0.00,,,0.02,0,Wunderground v.1.15,2013-02-22 22:47:00,
2013-02-22 17:52:00,39.5,35.4,30.02,East,98,1.0,2.0,85,0.00,,,0.02,0,Wunderground v.1.15,2013-02-22 22:52:00,
2013-02-22 17:58:00,39.5,35.4,30.02,ESE,110,0.0,2.0,85,0.00,,,0.02,0,Wunderground v.1.15,2013-02-22 22:58:00,
2013-02-22 18:05:00,39.3,35.2,30.02,ESE,109,0.0,0.0,85,0.00,,,0.02,0,Wunderground v.1.15,2013-02-22 23:05:00,
2013-02-22 18:10:00,39.3,35.2,30.03,ESE,111,0.0,2.0,85,0.00,,,0.02,0,Wunderground v.1.15,2013-02-22 23:10:00,
2013-02-22 18:15:00,39.2,35.1,30.03,ESE,111,0.0,2.0,85,0.00,,,0.02,0,Wunderground v.1.15,2013-02-22 23:15:00,
2013-02-22 18:21:00,39.1,35.0,30.03,ESE,111,0.0,1.0,85,0.00,,,0.02,0,Wunderground v.1.15,2013-02-22 23:21:00,
2013-02-22 18:28:00,39.1,35.0,30.02,East,94,0.0,3.0,85,0.00,,,0.02,0,Wunderground v.1.15,2013-02-22 23:28:00,
2013-02-22 18:33:00,39.0,34.9,30.02,East,94,1.0,1.0,85,0.00,,,0.02,0,Wunderground v.1.15,2013-02-22 23:33:00,
2013-02-22 18:39:00,39.0,34.9,30.03,East,94,0.0,1.0,85,0.00,,,0.02,0,Wunderground v.1.15,2013-02-22 23:39:00,
2013-02-22 18:44:00,38.9,34.8,30.03,East,94,0.0,1.0,85,0.00,,,0.02,0,Wunderground v.1.15,2013-02-22 23:44:00,
2013-02-22 18:50:00,38.9,35.1,30.02,East,94,0.0,0.0,86,0.00,,,0.02,0,Wunderground v.1.15,2013-02-22 23:50:00,
2013-02-22 18:56:00,38.8,35.0,30.02,East,96,0.0,1.0,86,0.00,,,0.02,0,Wunderground v.1.15,2013-02-22 23:56:00,
2013-02-22 19:01:00,38.8,35.0,30.02,East,92,0.0,0.0,86,0.00,,,0.02,0,Wunderground v.1.15,2013-02-23 00:01:00,
2013-02-22 19:06:00,38.7,34.9,30.02,East,92,0.0,0.0,86,0.00,,,0.02,0,Wunderground v.1.15,2013-02-23 00:06:00,
2013-02-22 19:11:00,38.6,34.8,30.03,East,92,0.0,0.0,86,0.00,,,0.02,0,Wunderground v.1.15,2013-02-23 00:11:00,
2013-02-22 19:17:00,38.6,34.8,30.03,East,92,0.0,0.0,86,0.00,,,0.02,0,Wunderground v.1.15,2013-02-23 00:17:00,
2013-02-22 19:22:00,38.5,34.7,30.03,East,92,0.0,0.0,86,0.00,,,0.02,0,Wunderground v.1.15,2013-02-23 00:22:00,
2013-02-22 19:27:00,38.4,34.6,30.02,East,92,0.0,0.0,86,0.00,,,0.02,0,Wunderground v.1.15,2013-02-23 00:27:00,
2013-02-22 19:33:00,38.4,34.6,30.03,East,92,0.0,0.0,86,0.00,,,0.02,0,Wunderground v.1.15,2013-02-23 00:33:00,
2013-02-22 19:38:00,38.3,34.8,30.03,East,92,0.0,0.0,87,0.00,,,0.02,0,Wunderground v.1.15,2013-02-23 00:38:00,
2013-02-22 19:44:00,38.2,34.7,30.03,East,92,0.0,0.0,87,0.00,,,0.02,0,Wunderground v.1.15,2013-02-23 00:44:00,
2013-02-22 19:49:00,38.0,34.5,30.03,East,92,0.0,0.0,87,0.00,,,0.02,0,Wunderground v.1.15,2013-02-23 00:49:00,
2013-02-22 19:55:00,37.9,34.4,30.02,East,92,0.0,0.0,87,0.00,,,0.02,0,Wunderground v.1.15,2013-02-23 00:55:00,
2013-02-22 20:01:00,37.8,34.3,30.03,ENE,59,0.0,0.0,87,0.00,,,0.02,0,Wunderground v.1.15,2013-02-23 01:01:00,
2013-02-22 20:06:00,37.6,34.1,30.03,ENE,59,0.0,0.0,87,0.00,,,0.02,0,Wunderground v.1.15,2013-02-23 01:06:00,
2013-02-22 20:11:00,37.4,33.9,30.03,ENE,59,0.0,0.0,87,0.00,,,0.02,0,Wunderground v.1.15,2013-02-23 01:11:00,
2013-02-22 20:17:00,37.3,34.1,30.03,ENE,59,0.0,0.0,88,0.00,,,0.02,0,Wunderground v.1.15,2013-02-23 01:17:00,
2013-02-22 20:23:00,37.2,34.0,30.03,ENE,59,0.0,0.0,88,0.00,,,0.02,0,Wunderground v.1.15,2013-02-23 01:23:00,
2013-02-22 20:29:00,37.1,33.9,30.03,ENE,59,0.0,0.0,88,0.00,,,0.02,0,Wunderground v.1.15,2013-02-23 01:29:00,
2013-02-22 20:34:00,37.0,33.8,30.04,ENE,59,0.0,0.0,88,0.00,,,0.02,0,Wunderground v.1.15,2013-02-23 01:34:00,
2013-02-22 20:40:00,37.0,33.8,30.04,ENE,59,0.0,0.0,88,0.00,,,0.02,0,Wunderground v.1.15,2013-02-23 01:40:00,
2013-02-22 20:45:00,36.9,33.7,30.04,NE,53,0.0,2.0,88,0.00,,,0.02,0,Wunderground v.1.15,2013-02-23 01:45:00,
2013-02-22 20:51:00,36.8,33.6,30.04,NE,53,0.0,2.0,88,0.00,,,0.02,0,Wunderground v.1.15,2013-02-23 01:51:00,
2013-02-22 20:57:00,36.8,33.6,30.04,NE,53,0.0,0.0,88,0.00,,,0.02,0,Wunderground v.1.15,2013-02-23 01:57:00,
2013-02-22 21:02:00,36.7,33.5,30.04,NE,53,0.0,0.0,88,0.00,,,0.02,0,Wunderground v.1.15,2013-02-23 02:02:00,
2013-02-22 21:08:00,36.6,33.4,30.03,East,80,0.0,0.0,88,0.00,,,0.02,0,Wunderground v.1.15,2013-02-23 02:08:00,
2013-02-22 21:14:00,36.6,33.4,30.04,East,80,0.0,0.0,88,0.00,,,0.02,0,Wunderground v.1.15,2013-02-23 02:14:00,
2013-02-22 21:19:00,36.4,33.2,30.04,NNE,32,0.0,2.0,88,0.00,,,0.02,0,Wunderground v.1.15,2013-02-23 02:19:00,
2013-02-22 21:25:00,36.3,33.1,30.04,NNE,21,0.0,0.0,88,0.00,,,0.02,0,Wunderground v.1.15,2013-02-23 02:25:00,
2013-02-22 21:30:00,36.3,33.1,30.04,NE,49,0.0,0.0,88,0.00,,,0.02,0,Wunderground v.1.15,2013-02-23 02:30:00,
2013-02-22 21:36:00,36.2,33.0,30.04,NE,49,0.0,0.0,88,0.00,,,0.02,0,Wunderground v.1.15,2013-02-23 02:36:00,
2013-02-22 21:41:00,36.1,32.9,30.04,NE,49,0.0,0.0,88,0.00,,,0.02,0,Wunderground v.1.15,2013-02-23 02:41:00,
2013-02-22 21:47:00,36.1,32.9,30.04,NE,55,0.0,0.0,88,0.00,,,0.02,0,Wunderground v.1.15,2013-02-23 02:47:00,
2013-02-22 21:53:00,36.0,32.8,30.04,NE,38,0.0,3.0,88,0.00,,,0.02,0,Wunderground v.1.15,2013-02-23 02:53:00,
2013-02-22 21:58:00,36.0,32.8,30.04,ENE,67,0.0,3.0,88,0.00,,,0.02,0,Wunderground v.1.15,2013-02-23 02:58:00,
2013-02-22 22:03:00,35.9,32.7,30.04,ENE,67,0.0,0.0,88,0.00,,,0.02,0,Wunderground v.1.15,2013-02-23 03:03:00,
2013-02-22 22:08:00,35.9,32.7,30.03,NE,55,0.0,0.0,88,0.00,,,0.02,0,Wunderground v.1.15,2013-02-23 03:08:00,
2013-02-22 22:14:00,35.9,32.7,30.03,NE,55,0.0,0.0,88,0.00,,,0.02,0,Wunderground v.1.15,2013-02-23 03:14:00,
2013-02-22 22:19:00,35.8,32.6,30.04,ENE,70,0.0,1.0,88,0.00,,,0.02,0,Wunderground v.1.15,2013-02-23 03:19:00,
2013-02-22 22:25:00,35.7,32.5,30.03,ENE,67,0.0,0.0,88,0.00,,,0.02,0,Wunderground v.1.15,2013-02-23 03:25:00,
2013-02-22 22:31:00,35.7,32.5,30.03,ENE,67,0.0,0.0,88,0.00,,,0.02,0,Wunderground v.1.15,2013-02-23 03:31:00,
2013-02-22 22:36:00,35.7,32.5,30.03,East,81,0.0,2.0,88,0.00,,,0.02,0,Wunderground v.1.15,2013-02-23 03:36:00,
2013-02-22 22:41:00,35.7,32.5,30.03,East,81,0.0,0.0,88,0.00,,,0.02,0,Wunderground v.1.15,2013-02-23 03:41:00,
2013-02-22 22:46:00,35.7,32.5,30.03,East,81,0.0,0.0,88,0.00,,,0.02,0,Wunderground v.1.15,2013-02-23 03:46:00,
2013-02-22 22:52:00,35.7,32.5,30.03,East,81,0.0,0.0,88,0.00,,,0.02,0,Wunderground v.1.15,2013-02-23 03:52:00,
2013-02-22 22:58:00,35.6,32.4,30.03,East,81,0.0,0.0,88,0.00,,,0.02,0,Wunderground v.1.15,2013-02-23 03:58:00,
2013-02-22 23:04:00,35.7,32.2,30.03,East,82,0.0,0.0,87,0.00,,,0.02,0,Wunderground v.1.15,2013-02-23 04:04:00,
2013-02-22 23:09:00,35.7,32.2,30.03,East,82,0.0,0.0,87,0.00,,,0.02,0,Wunderground v.1.15,2013-02-23 04:09:00,
2013-02-22 23:14:00,35.7,32.5,30.03,East,82,0.0,0.0,88,0.00,,,0.02,0,Wunderground v.1.15,2013-02-23 04:14:00,
2013-02-22 23:19:00,35.7,32.2,30.03,East,82,0.0,1.0,87,0.00,,,0.02,0,Wunderground v.1.15,2013-02-23 04:19:00,
2013-02-22 23:24:00,35.7,32.2,30.04,East,82,0.0,0.0,87,0.00,,,0.02,0,Wunderground v.1.15,2013-02-23 04:24:00,
2013-02-22 23:30:00,35.8,32.3,30.03,East,87,0.0,1.0,87,0.00,,,0.02,0,Wunderground v.1.15,2013-02-23 04:30:00,
2013-02-22 23:35:00,35.8,32.3,30.03,East,99,1.0,2.0,87,0.00,,,0.02,0,Wunderground v.1.15,2013-02-23 04:35:00,
2013-02-22 23:41:00,35.8,32.3,30.02,East,99,0.0,2.0,87,0.00,,,0.02,0,Wunderground v.1.15,2013-02-23 04:41:00,
2013-02-22 23:46:00,35.7,31.9,30.02,East,99,0.0,0.0,86,0.00,,,0.02,0,Wunderground v.1.15,2013-02-23 04:46:00,
2013-02-22 23:53:00,35.7,32.2,30.02,East,99,0.0,0.0,87,0.00,,,0.02,0,Wunderground v.1.15,2013-02-23 04:53:00,
2013-02-22 23:58:00,35.7,32.2,30.02,East,99,0.0,1.0,87,0.00,,,0.02,0,Wunderground v.1.15,2013-02-23 04:58:00,